Regional Weather Roundup
Issued by NWS

Home | Current Version | Previous Version | Text Only | Print | Product List | Glossary On
Versions: 1 2 3 4 5 6 7 8 9 10 11 12 13 14 15 16 17 18 19 20 21 22 23 24 25 26 27 28 29 30 31 32 33 34 35 36 37 38 39 40 41 42 43 44 45 46 47 48 49 50
000
ASUS46 KSTO 210215
RWRCA

NORTHERN AND CENTRAL CA REGIONAL WEATHER ROUNDUP
NATIONAL WEATHER SERVICE SACRAMENTO CA
700 PM PDT SUN AUG 20 2017

NOTE: FAIR INDICATES FEW OR NO CLOUDS BELOW 12,000 FEET WITH NO
SIGNIFICANT WEATHER AND/OR OBSTRUCTIONS TO VISIBILITY.

CAZ001-003-210300-
NORTHWEST AREA

CITY           SKY/WX    TMP DP  RH WIND       PRES   REMARKS
CRESCENT CITY  CLOUDY    57  52  83 S13       29.87S
UKIAH          SUNNY     82  59  45 S6        29.83R
$$

CAZ006-505>513-210300-
BAY AREA

CITY           SKY/WX    TMP DP  RH WIND       PRES   REMARKS
SANTA ROSA     SUNNY     67  57  70 S10       29.87S
SAN RAFAEL     N/A       71  MM  MM MISG
NAPA           CLEAR     70  60  70 S13       29.85S
CONCORD        CLEAR     73  58  59 SW14      29.85R
OAKLAND CITY   N/A      MM  MM  MM MISG
OAKLAND        PTCLDY    67  60  78 W12       29.88S
SAN FRAN CITY  N/A       64  MM  78 MISG
SAN FRAN ARPT  PTCLDY    67  56  67 W13       29.87S
LIVERMORE      CLEAR     73  58  59 W14       29.84R
HAYWARD        PTCLDY    69  56  62 NW14      29.87R
REDWOOD CITY   N/A       73  MM  61 MISG
MOFFETT ARPT   CLEAR     71  60  68 N10       29.87R
SAN JOSE ARPT  PTCLDY    73  60  63 NW13      29.86R
$$
CAZ034-037-514>518-210300-
CENTRAL COAST

CITY           SKY/WX    TMP DP  RH WIND       PRES   REMARKS
WATSONVILLE    CLEAR     66  58  75 W9        29.90F
SALINAS        CLOUDY    65  59  81 W12       29.88S
MONTEREY       CLEAR     67  59  75 NE7       29.88S
SAN LUIS OBISP CLOUDY    67  59  75 S3        29.89S
SANTA MARIA    MOCLDY    66  59  78 N7        29.89F HAZE
$$
CAZ015-016-210300-
NORTHERN SACRAMENTO VALLEY

CITY           SKY/WX    TMP DP  RH WIND       PRES   REMARKS
REDDING        SUNNY     95  57  27 S14       29.72S HX  94
RED BLUFF      SUNNY     90  64  42 S12       29.75R HX  91
OROVILLE       PTCLDY    90  63  40 S13       29.78R HX  91
$$
CAZ016>018-210300-
SOUTHERN SACRAMENTO VALLEY

CITY           SKY/WX    TMP DP  RH WIND       PRES   REMARKS
AUBURN         PTCLDY    86  73  66 CALM      29.86S HX  93
LINCOLN        FAIR      90  50  25 S7        29.76S
MARYSVILLE     PTCLDY    89  59  36 S9        29.77R
SAC INTL ARPT  PTCLDY    84  62  47 S14       29.76F
MATHER AIRPORT PTCLDY    82  59  44 S10       29.79R
DOWNTOWN SAC   N/A       82  MM  MM MISG
SAC EXEC ARPT  CLEAR     79  61  53 S14G20    29.77F
VACAVILLE      CLEAR     84  60  44 SW9       29.78S
TRAVIS AFB     CLEAR     73  58  58 SW25      29.77S
$$
CAZ019>021-210300-
SAN JOAQUIN VALLEY

CITY           SKY/WX    TMP DP  RH WIND       PRES   REMARKS
STOCKTON       PTCLDY    84  59  42 NW12      29.78F
MODESTO        PTCLDY    88  59  37 NW14      29.77F
MERCED         CLEAR     88  58  36 NW10      29.77R
LEMOORE        PTCLDY    94  59  31 N14       29.77R HX  93
FRESNO         MOCLDY    92  58  31 NW12      29.76S HX  91
HANFORD        PTCLDY    93  58  30 NW8       29.76R HX  92
PORTERVILLE      N/A     93  62  35 NW6       29.77R HX  93
BAKERSFIELD    CLEAR     95  59  30 N10       29.76R HX  94
$$
CAZ011-012-071-210300-
NORTHERN MOUNTAINS

CITY           SKY/WX    TMP DP  RH WIND       PRES   REMARKS
YREKA          SUNNY     83  38  20 N17       29.95R HAZE
MOUNT SHASTA   SUNNY     80  46  30 CALM      29.97S
ALTURAS        CLEAR     86  34  15 NW9       30.00S
$$
CAZ011-012-071-210300-
SIERRA NEVADA MTNS

CITY           SKY/WX    TMP DP  RH WIND       PRES   REMARKS
BLUE CANYON    MOCLDY    70  54  56 S5        30.13R
TRUCKEE        MOCLDY    70  55  60 CALM      30.14R
TAHOE VLY ARPT CLOUDY    65  45  48 S7        30.17R
MAMMOTH LAKES  MOCLDY    73  39  29 SW7       30.18R
$$




USA.gov is the U.S. government's official web portal to all federal, state and local government web resources and services.